Terug naar catalogus

NOAA 16 DEB

ActiefSSO
NORAD 41217·DEBRIS·🇺🇸 United States

Gelanceerd Sep 21, 2000 vanaf Vandenberg Space Force Base

Loading…

Volgende Passages (komende 24 uur)

TLE

VersSource: Space-Track

Epoch: Sep 12, 2026, 07:04 UTC

1 41217U 00055DW  26255.29512862  .00001927  00000-0  92997-3 0  9998
2 41217  98.6862 281.9339 0038277  16.6765 343.5660 14.19400796551738

Volg NOAA 16 DEB in realtime met AllMySat

Download on the App Store